Oakland, CA

12:17 PM PDT on June 20, 2018 (GMT -0700)
Metro Oakland International

Weather History for KOAK - November, 2017

Change the Weather History Date:

Friday, November 3, 2017

  Actual Average Record
Temperature  
Mean Temperature 59 °F 57 °F  
Max Temperature 65 °F 66 °F 83 °F (1950)
Min Temperature 53 °F 48 °F 39 °F (1952)
Degree Days  
Heating Degree Days 6 8  
Month to date heating degree days 24 23  
Since 1 July heating degree days 217 375  
Cooling Degree Days 0 0  
Month to date cooling degree days 0 0  
Year to date cooling degree days 312 137  
Growing Degree Days 8 (Base 50)    
Moisture  
Dew Point 53 °F    
Average Humidity 80    
Maximum Humidity 93    
Minimum Humidity 67    
Precipitation  
Precipitation 0.09 in 0.08 in 1.00 in (1972)
Month to date precipitation 0.09 0.25  
Year to date precipitation 20.34 14.95  
Sea Level Pressure  
Sea Level Pressure 30.01 in    
Wind  
Wind Speed 10 mph (SSE)    
Max Wind Speed 18 mph    
Max Gust Speed 23 mph    
Visibility 10 miles    
Events Rain    
T = Trace of Precipitation, MM = Missing Value Source: NWS Daily Summary

Daily Weather History Graph

Daily Weather History Graph

Search for Another Location

Airport or City:

Astronomy

Nov. 03, 2017 Rise Set
Actual Time 7:36 AM PDT 6:07 PM PDT
Civil Twilight 7:09 AM PDT 6:35 PM PDT
Nautical Twilight 6:38 AM PDT 7:06 PM PDT
Astronomical Twilight 6:07 AM PDT 7:36 PM PDT
Moon 6:19 PM PDT (11/3) 6:47 AM PDT (11/3)
Length of Visible Light 11h 25m
Length of Day
10h 31m
Full, 100% of the Moon is Illuminated
Nov 3
Full
Nov 3
Full
Nov 10
Last Quarter
Nov 18
New
Nov 26
First Quarter

Hourly Weather History & Observations

Time (PDT) Temp. Dew Point Humidity Pressure Visibility Wind Dir Wind Speed Gust Speed Precip Events Conditions
12:53 AM 53.1 °F 46.0 °F 77% 30.02 in 10.0 mi East 3.5 mph - N/A   Overcast
1:53 AM 54.0 °F 46.0 °F 75% 30.02 in 10.0 mi NNE 4.6 mph - N/A   Overcast
2:53 AM 55.0 °F 46.9 °F 74% 30.02 in 10.0 mi East 3.5 mph - N/A   Overcast
3:53 AM 57.0 °F 54.0 °F 89% 30.03 in 4.0 mi Variable 3.5 mph - 0.05 in Rain Heavy Rain
4:53 AM 55.0 °F 54.0 °F 96% 30.02 in 10.0 mi ENE 9.2 mph - 0.04 in Rain Light Rain
5:53 AM 55.0 °F 52.0 °F 89% 30.03 in 10.0 mi East 4.6 mph - 0.00 in   Overcast
6:53 AM 57.0 °F 52.0 °F 83% 30.02 in 10.0 mi SE 11.5 mph - N/A   Overcast
7:53 AM 55.9 °F 51.1 °F 84% 30.02 in 10.0 mi SE 11.5 mph - N/A   Overcast
8:53 AM 57.0 °F 52.0 °F 83% 30.04 in 10.0 mi SE 12.7 mph - N/A   Mostly Cloudy
9:53 AM 59.0 °F 53.1 °F 81% 30.04 in 10.0 mi SE 17.3 mph - N/A   Overcast
10:53 AM 60.1 °F 53.1 °F 78% 30.05 in 10.0 mi SE 15.0 mph - N/A   Overcast
11:53 AM 64.0 °F 54.0 °F 70% 30.05 in 10.0 mi SSE 16.1 mph - N/A   Overcast
12:53 PM 63.0 °F 53.1 °F 70% 30.03 in 10.0 mi SSE 15.0 mph - N/A   Overcast
1:53 PM 64.0 °F 54.0 °F 70% 30.00 in 10.0 mi SE 11.5 mph - N/A   Overcast
2:53 PM 64.0 °F 54.0 °F 70% 29.99 in 10.0 mi South 8.1 mph - N/A   Overcast
3:53 PM 63.0 °F 54.0 °F 72% 29.99 in 10.0 mi SW 16.1 mph - N/A   Overcast
4:53 PM 62.1 °F 55.0 °F 78% 29.99 in 10.0 mi SW 12.7 mph - N/A   Overcast
5:35 PM 61.0 °F 55.0 °F 81% 29.99 in 10.0 mi SSE 11.5 mph - 0.00 in Rain Light Rain
5:53 PM 60.1 °F 55.0 °F 83% 29.99 in 10.0 mi SE 10.4 mph - 0.00 in   Overcast
6:08 PM 61.0 °F 55.0 °F 81% 29.99 in 10.0 mi SSE 9.2 mph - N/A   Overcast
6:49 PM 60.8 °F 55.4 °F 82% 29.99 in 10.0 mi South 10.4 mph - N/A   Overcast
6:53 PM 61.0 °F 55.9 °F 83% 30.00 in 10.0 mi SSE 8.1 mph - N/A   Overcast
7:08 PM 61.0 °F 55.0 °F 81% 29.99 in 10.0 mi South 9.2 mph - N/A   Overcast
7:53 PM 61.0 °F 54.0 °F 78% 29.99 in 10.0 mi South 13.8 mph - N/A   Overcast
8:53 PM 60.1 °F 53.1 °F 78% 29.99 in 10.0 mi South 10.4 mph - 0.00 in   Overcast
9:53 PM 60.1 °F 53.1 °F 78% 30.00 in 10.0 mi South 9.2 mph - N/A   Mostly Cloudy
10:53 PM 60.1 °F 53.1 °F 78% 30.00 in 10.0 mi South 8.1 mph - N/A   Mostly Cloudy
11:53 PM 57.9 °F 53.1 °F 84% 29.99 in 10.0 mi SSE 6.9 mph - N/A   Mostly Cloudy